[[{"header":{"parameterUnit":"m.s-1","parameterCategory":1,"la1":30.2991,"la2":30.254,"lo1":-89.0895,"lo2":-89.0444,"dy":0.0017,"dx":0.0017,"nx":28,"ny":28,"refTime":"2023-03-18T21:00:00:Z","depth":0,"parameterNumber":2,"parameterNumberName":"U-component_of_WINDS"},"data":[0,0,0,0,0,0,0,0,0,0,0,0,0,0,0,0,0,0,0,0,0,0,0,0,0,0,0,0,0,0,0,0,0,0,0,0,0,0,0,0,0,0,0,0,0,0,0,0,0,0,0,0,0,0,0,0,0,0,1.0517,1.0516,0,1.0472,1.0471,1.0471,1.0458,1.0458,1.0458,1.0458,1.0409,1.0408,1.0406,0,0,0,0,0,0,0,0,0,0,0,0,0,1.059,1.0589,1.0517,1.0516,1.0516,1.0472,1.0471,1.0471,1.0458,1.0458,1.0458,1.0458,1.041,1.0408,1.0406,0,0,0,0,0,0,0,0,0,0,0,0,0,1.0553,1.0588,1.0517,1.0504,1.0502,1.0472,1.0471,1.047,1.0458,1.0458,1.0458,1.0459,1.0411,1.0408,1.0406,1.0384,0,0,1.0399,1.0398,0,0,0,0,0,0,0,0,1.0555,1.055,1.0506,1.0505,1.0503,1.0471,1.0479,1.0441,1.0457,1.0474,1.0458,1.0459,1.0429,1.0425,1.0416,1.0382,1.038,1.0399,1.0397,1.0396,1.0396,0,0,0,0,0,0,0,1.0557,1.0552,1.0499,1.0506,1.0504,1.05,1.0495,1.0472,1.045,1.0473,1.0472,1.0467,1.0428,1.0418,1.0415,1.0379,1.0399,1.0397,1.0395,1.0394,1.0326,1.0326,0,0,0,0,0,0,1.0563,1.0554,1.05,1.0497,1.053,1.0498,1.0493,1.0481,1.045,1.0446,1.0467,1.0467,1.0422,1.0418,1.0413,1.0386,1.0396,1.0394,1.0393,1.0327,1.0326,1.0326,0,0,0,0,0,0,1.0564,1.0558,1.0502,1.0526,1.0518,1.0497,1.0483,1.048,1.0469,1.0446,1.0442,1.046,1.0422,1.0416,1.0392,1.0384,1.0393,1.0391,1.0327,1.0326,1.0326,1.0332,0,0,0,0,0,0,1.0566,1.0558,1.055,1.0525,1.0517,1.0482,1.0483,1.0478,1.0466,1.0465,1.0439,1.0435,1.0422,1.0396,1.039,1.0381,1.0389,1.0328,1.0327,1.0326,1.0332,1.0332,1.0331,0,0,0,0,0,1.0569,1.0553,1.055,1.0543,1.0506,1.0482,1.0477,1.0463,1.0465,1.0457,1.0442,1.0436,1.0386,1.0393,1.0386,1.0377,1.0328,1.0327,1.0326,1.0333,1.0332,1.0331,0,0,0,0,0,0,1.0576,1.0549,1.0546,1.0521,1.0504,1.048,1.0468,1.0463,1.0444,1.0444,1.0427,1.0421,1.0398,1.0385,1.0393,1.0355,1.0357,1.0355,1.0364,1.0363,1.0363,1.0366,1.0387,0,0,0,0,0,1.0575,1.0558,1.0535,1.0516,1.0507,1.049,1.0478,1.047,1.0451,1.0443,1.0426,1.0407,1.0388,1.0375,1.0355,1.0331,1.0325,1.0321,1.0321,1.032,1.0318,1.0305,1.0303,1.0322,1.0322,1.0322,0,0,1.0572,1.0555,1.0545,1.0517,1.0502,1.0485,1.0483,1.0464,1.0451,1.044,1.0416,1.0403,1.0381,1.0357,1.0345,1.0346,1.0312,1.0319,1.0319,1.0317,1.0304,1.0302,1.0301,1.0322,1.0322,1.0322,0,0,1.0557,1.0543,1.0526,1.0512,1.0491,1.0479,1.0475,1.0452,1.0444,1.042,1.0412,1.0395,1.0362,1.0347,1.0335,1.0317,1.0311,1.0311,1.0307,1.0294,1.0293,1.0292,1.0285,1.0283,1.0309,1.0309,1.0309,0,1.0556,1.0529,1.0517,1.0499,1.0487,1.0478,1.046,1.0447,1.042,1.0412,1.0413,1.0372,1.0356,1.0329,1.0325,1.0315,1.031,1.0313,1.0294,1.0293,1.0291,1.0285,1.0283,1.0309,1.0309,1.0309,1.0309,0,1.0529,1.0511,1.0499,1.0475,1.0462,1.0444,1.0429,1.0417,1.041,1.0399,1.0375,1.0357,1.0334,1.0327,1.0319,1.0299,1.03,1.0298,1.0299,1.029,1.0284,1.0281,1.031,1.031,1.0309,1.0309,0,0,1.0515,1.0487,1.0483,1.0472,1.0449,1.0435,1.0417,1.0396,1.0386,1.0368,1.0353,1.0326,1.0324,1.0311,1.0302,1.0291,1.0279,1.029,1.029,1.0289,1.0255,1.0256,1.0254,1.0275,1.0274,1.0274,1.0257,0,1.0498,1.0466,1.0456,1.043,1.0413,1.0405,1.039,1.0374,1.0363,1.0347,1.0335,1.0316,1.0315,1.0307,1.0296,1.0282,1.0271,1.0284,1.026,1.0259,1.0265,1.0251,1.0251,1.0236,1.0255,1.0254,1.0254,0,1.0473,1.0456,1.0429,1.0409,1.0402,1.0388,1.0369,1.0354,1.0336,1.0329,1.0315,1.0307,1.0288,1.0292,1.0265,1.0274,1.0264,1.0256,1.0255,1.0251,1.0255,1.0246,1.0231,1.0228,1.025,1.025,1.0251,0,1.0466,1.0437,1.0417,1.0408,1.0385,1.0375,1.0365,1.0348,1.0336,1.0319,1.0312,1.0292,1.0282,1.0267,1.0254,1.0258,1.0229,1.0231,1.0222,1.0223,1.0215,1.0216,1.0198,1.021,1.021,1.021,1.021,0,1.0447,1.043,1.0414,1.0401,1.0383,1.0371,1.0353,1.0342,1.0327,1.0312,1.0304,1.029,1.0275,1.0259,1.0249,1.0229,1.0224,1.0218,1.0215,1.0218,1.0219,1.021,1.0211,1.0209,1.021,1.021,1.021,0,1.0435,1.0424,1.0401,1.0382,1.0377,1.0364,1.0347,1.0335,1.0325,1.0306,1.0301,1.0284,1.0266,1.0252,1.0227,1.0221,1.0199,1.0197,1.0205,1.0204,1.0196,1.0197,1.0171,1.0167,1.0182,1.0182,1.0182,0,1.0424,1.0411,1.0391,1.0381,1.0371,1.0355,1.0344,1.0333,1.0321,1.0301,1.0291,1.0272,1.0256,1.0227,1.0212,1.0193,1.019,1.0183,1.0187,1.0191,1.019,1.0191,1.0189,1.0181,1.0181,1.0181,1.0181,0,1.0404,1.04,1.0384,1.0367,1.0355,1.034,1.0326,1.0318,1.0304,1.0292,1.0273,1.0261,1.0237,1.0218,1.0198,1.0187,1.0182,1.018,1.0177,1.018,1.0185,1.0182,1.0203,1.018,1.018,1.0181,1.0181,1.0181,1.0392,1.0381,1.0365,1.0349,1.0337,1.0325,1.0312,1.0301,1.0286,1.0266,1.026,1.0241,1.0225,1.0198,1.0187,1.0172,1.0172,1.0167,1.0166,1.0165,1.0165,1.0189,1.0168,1.0168,1.0168,1.0168,1.0168,0,1.0372,1.0362,1.0348,1.0328,1.0316,1.0313,1.0298,1.0287,1.027,1.0256,1.0241,1.0221,1.0203,1.0188,1.0169,1.016,1.0157,1.0156,1.0156,1.0153,1.0166,1.0171,1.0158,1.0158,1.0158,1.0158,1.0158,1.0158,1.036,1.0341,1.0335,1.0311,1.0301,1.0283,1.0274,1.0263,1.0251,1.0229,1.0215,1.0205,1.0191,1.0172,1.0156,1.0152,1.0145,1.0144,1.0139,1.0151,1.0152,1.0153,1.0158,1.0143,1.0143,1.0128,1.0128,1.0128]},{"header":{"parameterUnit":"m.s-1","parameterCategory":1,"la1":30.2991,"la2":30.254,"lo1":-89.0895,"lo2":-89.0444,"dy":0.0017,"dx":0.0017,"nx":28,"ny":28,"refTime":"2023-03-18T21:00:00:Z","depth":0,"parameterNumber":3,"parameterNumberName":"V-component_of_WINDS"},"data":[0,0,0,0,0,0,0,0,0,0,0,0,0,0,0,0,0,0,0,0,0,0,0,0,0,0,0,0,0,0,0,0,0,0,0,0,0,0,0,0,0,0,0,0,0,0,0,0,0,0,0,0,0,0,0,0,0,0,-7.3079,-7.3081,0,-7.3225,-7.3226,-7.3228,-7.3158,-7.3154,-7.315,-7.3147,-7.3291,-7.3298,-7.3305,0,0,0,0,0,0,0,0,0,0,0,0,0,-7.2736,-7.2742,-7.3079,-7.3081,-7.3083,-7.3224,-7.3226,-7.3228,-7.3158,-7.3154,-7.3149,-7.3145,-7.3288,-7.3297,-7.3305,0,0,0,0,0,0,0,0,0,0,0,0,0,-7.2883,-7.2745,-7.3079,-7.3065,-7.3065,-7.3224,-7.3226,-7.3229,-7.3159,-7.3154,-7.3148,-7.3143,-7.3285,-7.3296,-7.3307,-7.3486,0,0,-7.334,-7.3345,0,0,0,0,0,0,0,0,-7.2875,-7.2896,-7.3065,-7.3066,-7.3067,-7.3167,-7.3158,-7.3315,-7.3161,-7.3124,-7.3147,-7.314,-7.3254,-7.3267,-7.3306,-7.3492,-7.3499,-7.3341,-7.3348,-7.3352,-7.3355,0,0,0,0,0,0,0,-7.2865,-7.2889,-7.3136,-7.3068,-7.3069,-7.305,-7.3065,-7.3187,-7.3218,-7.3126,-7.3122,-7.314,-7.3253,-7.3296,-7.3309,-7.3501,-7.3341,-7.335,-7.3357,-7.3361,-7.3839,-7.3845,0,0,0,0,0,0,-7.2856,-7.2881,-7.3132,-7.3141,-7.2955,-7.3061,-7.3077,-7.3141,-7.3216,-7.3223,-7.3145,-7.3136,-7.328,-7.3296,-7.3314,-7.3528,-7.3352,-7.3363,-7.3369,-7.3833,-7.3841,-7.3847,0,0,0,0,0,0,-7.2849,-7.2879,-7.3126,-7.301,-7.304,-7.3073,-7.3144,-7.3147,-7.3189,-7.323,-7.3235,-7.3183,-7.3276,-7.3298,-7.3444,-7.3532,-7.3367,-7.3377,-7.3826,-7.3836,-7.3844,-7.3957,0,0,0,0,0,0,-7.2839,-7.2877,-7.2947,-7.3012,-7.3047,-7.3255,-7.315,-7.3153,-7.3209,-7.3199,-7.3268,-7.3274,-7.3274,-7.3428,-7.3454,-7.3544,-7.3386,-7.3818,-7.383,-7.3841,-7.3946,-7.3969,-7.3989,0,0,0,0,0,-7.2827,-7.2972,-7.295,-7.2981,-7.3135,-7.3261,-7.328,-7.3279,-7.3216,-7.3286,-7.3312,-7.3271,-7.3518,-7.3443,-7.3473,-7.3567,-7.3813,-7.3827,-7.384,-7.3936,-7.3965,-7.3989,0,0,0,0,0,0,-7.2914,-7.298,-7.2957,-7.3128,-7.3189,-7.3249,-7.3336,-7.3309,-7.3388,-7.3376,-7.3369,-7.3385,-7.3535,-7.3565,-7.3481,-7.3743,-7.3655,-7.3676,-7.3718,-7.3746,-7.3767,-7.3756,-7.3395,0,0,0,0,0,-7.2953,-7.3052,-7.3104,-7.3249,-7.3281,-7.3304,-7.3358,-7.3352,-7.3415,-7.344,-7.3477,-7.3538,-7.3629,-7.3689,-7.3775,-7.395,-7.3963,-7.4029,-7.4051,-7.4068,-7.4086,-7.4179,-7.4209,-7.3893,-7.3893,-7.3892,0,0,-7.3035,-7.3083,-7.3146,-7.3268,-7.3314,-7.3415,-7.3326,-7.3436,-7.351,-7.3456,-7.3596,-7.3625,-7.3692,-7.3853,-7.3926,-7.3883,-7.4176,-7.4086,-7.41,-7.4108,-7.4197,-7.4226,-7.4253,-7.3902,-7.39,-7.3899,0,0,-7.3235,-7.3282,-7.3408,-7.3457,-7.353,-7.3544,-7.3574,-7.3638,-7.3656,-7.3796,-7.3758,-7.3844,-7.4002,-7.4051,-7.4097,-7.4315,-7.428,-7.4343,-7.4457,-7.4548,-7.4573,-7.4595,-7.4672,-7.47,-7.4361,-7.4361,-7.4361,0,-7.3327,-7.3478,-7.3475,-7.3589,-7.3643,-7.3601,-7.3727,-7.3774,-7.3871,-7.3908,-7.3859,-7.4056,-7.4098,-7.4269,-7.4323,-7.4361,-7.4394,-7.4335,-7.457,-7.4592,-7.4612,-7.4686,-7.4715,-7.4368,-7.4367,-7.4366,-7.4366,0,-7.3587,-7.3693,-7.3785,-7.3882,-7.3946,-7.4066,-7.4079,-7.4144,-7.4132,-7.4151,-7.4293,-7.4343,-7.4438,-7.4478,-7.4466,-7.4647,-7.4618,-7.457,-7.4482,-7.465,-7.4718,-7.4746,-7.4378,-7.4376,-7.4374,-7.4372,0,0,-7.3846,-7.3939,-7.3973,-7.4016,-7.4093,-7.4174,-7.429,-7.4385,-7.4441,-7.4508,-7.4605,-7.4739,-7.4695,-7.4747,-7.474,-7.482,-7.4989,-7.4762,-7.4763,-7.4802,-7.519,-7.5226,-7.5259,-7.4967,-7.4972,-7.4976,-7.5184,0,-7.4051,-7.4257,-7.4258,-7.4448,-7.4544,-7.4505,-7.4606,-7.4663,-7.4684,-7.4767,-7.4788,-7.4884,-7.4818,-7.4849,-7.4927,-7.4952,-7.5067,-7.4937,-7.5055,-7.5059,-7.5039,-7.5295,-7.5333,-7.5527,-7.5211,-7.5216,-7.5219,0,-7.4318,-7.4396,-7.4596,-7.4658,-7.4699,-7.4791,-7.4877,-7.4958,-7.5021,-7.503,-7.5088,-7.5069,-7.5186,-7.5095,-7.5254,-7.5166,-7.5214,-7.5234,-7.5241,-7.5251,-7.5149,-7.5311,-7.5589,-7.5618,-7.5261,-7.5258,-7.5255,0,-7.4486,-7.4641,-7.478,-7.4818,-7.4895,-7.496,-7.4994,-7.5052,-7.5109,-7.5183,-7.522,-7.5307,-7.5354,-7.5421,-7.5425,-7.5358,-7.5586,-7.5495,-7.5595,-7.5595,-7.5644,-7.5641,-7.5933,-7.5676,-7.5676,-7.5675,-7.5675,0,-7.4714,-7.4838,-7.4857,-7.4943,-7.5079,-7.5078,-7.5212,-7.5241,-7.5293,-7.5382,-7.5352,-7.5436,-7.5437,-7.5522,-7.5526,-7.5657,-7.5678,-7.5687,-7.5687,-7.569,-7.5689,-7.5721,-7.5707,-7.5683,-7.5681,-7.568,-7.5678,0,-7.4925,-7.4943,-7.5092,-7.5153,-7.5171,-7.5269,-7.5319,-7.54,-7.5418,-7.5531,-7.5557,-7.5584,-7.5682,-7.5693,-7.5808,-7.581,-7.5968,-7.5953,-7.5947,-7.5945,-7.6044,-7.6034,-7.6366,-7.6409,-7.6125,-7.6128,-7.613,0,-7.507,-7.5164,-7.5235,-7.5294,-7.5332,-7.5427,-7.5485,-7.5486,-7.5547,-7.5626,-7.5697,-7.5793,-7.587,-7.6029,-7.6057,-7.6144,-7.613,-7.6241,-7.6143,-7.6143,-7.6131,-7.6125,-7.6134,-7.6259,-7.6263,-7.6265,-7.6267,0,-7.5324,-7.5328,-7.5414,-7.5503,-7.5573,-7.5643,-7.5708,-7.5757,-7.5767,-7.5837,-7.5938,-7.5998,-7.6115,-7.621,-7.6295,-7.6328,-7.6299,-7.6298,-7.6325,-7.6329,-7.6322,-7.6327,-7.5998,-7.629,-7.6288,-7.6286,-7.6285,-7.6284,-7.5506,-7.5587,-7.5651,-7.5747,-7.5796,-7.5858,-7.5937,-7.5965,-7.605,-7.6146,-7.6142,-7.6253,-7.6312,-7.6424,-7.6464,-7.6549,-7.6512,-7.6553,-7.6563,-7.6573,-7.6582,-7.6309,-7.6565,-7.6564,-7.6564,-7.6563,-7.6563,0,-7.5758,-7.5797,-7.5885,-7.5978,-7.6054,-7.6022,-7.6092,-7.6156,-7.6256,-7.6314,-7.6391,-7.6506,-7.6598,-7.6634,-7.6723,-7.6785,-7.6774,-7.6808,-7.6803,-7.6811,-7.6611,-7.6578,-7.6816,-7.6816,-7.6816,-7.6816,-7.6816,-7.6816,-7.5898,-7.6035,-7.6047,-7.6207,-7.6244,-7.6354,-7.6397,-7.6453,-7.65,-7.6631,-7.6708,-7.6731,-7.678,-7.6873,-7.6955,-7.6963,-7.6997,-7.7037,-7.7039,-7.6851,-7.6825,-7.6801,-7.677,-7.7045,-7.7045,-7.7233,-7.7234,-7.7236]}]]